| time (UTC) | temp C | wind direction | speed KPH | gust KPH | rain 1hr cm | rain 24hr cm | rain mn cm | humidity % | barometer mb |
| 20260507185704 | 16 | 41 | 4.8 | 8.0 | 0.00 | 0.03 | 0.03 | 68 | 1011.8 |
| 20260507185204 | 16 | 38 | 4.8 | 8.0 | 0.00 | 0.03 | 0.03 | 68 | 1011.8 |
| 20260507184204 | 17 | 36 | 4.8 | 9.7 | 0.00 | 0.03 | 0.03 | 65 | 1011.7 |
| 20260507183704 | 17 | 59 | 4.8 | 9.7 | 0.00 | 0.03 | 0.03 | 65 | 1011.6 |
| 20260507183204 | 17 | 42 | 4.8 | 9.7 | 0.00 | 0.03 | 0.03 | 64 | 1011.6 |
| 20260507182704 | 18 | 29 | 3.2 | 9.7 | 0.00 | 0.03 | 0.03 | 62 | 1011.6 |
| 20260507181703 | 18 | 26 | 4.8 | 9.7 | 0.00 | 0.03 | 0.03 | 60 | 1011.6 |
| 20260507181203 | 18 | 26 | 4.8 | 9.7 | 0.00 | 0.03 | 0.03 | 57 | 1011.6 |
| 20260507180704 | 18 | 39 | 3.2 | 9.7 | 0.00 | 0.03 | 0.03 | 59 | 1011.6 |
| 20260507180204 | 18 | 356 | 1.6 | 11.3 | 0.00 | 0.03 | 0.03 | 59 | 1011.5 |
| 20260507175704 | 18 | 353 | 8.0 | 11.3 | 0.00 | 0.03 | 0.03 | 60 | 1011.6 |
| 20260507175204 | 18 | 7 | 8.0 | 12.9 | 0.00 | 0.03 | 0.03 | 59 | 1011.6 |
| 20260507174704 | 18 | 24 | 8.0 | 12.9 | 0.00 | 0.03 | 0.03 | 59 | 1011.6 |
| 20260507174204 | 18 | 336 | 3.2 | 11.3 | 0.00 | 0.03 | 0.03 | 57 | 1011.6 |
| 20260507173703 | 19 | 6 | 8.0 | 11.3 | 0.00 | 0.03 | 0.03 | 54 | 1011.6 |
| 20260507172704 | 18 | 5 | 1.6 | 12.9 | 0.00 | 0.03 | 0.03 | 52 | 1011.6 |
| 20260507172204 | 19 | 1 | 9.7 | 12.9 | 0.00 | 0.03 | 0.03 | 53 | 1011.6 |
| 20260507171204 | 18 | 348 | 8.0 | 14.5 | 0.00 | 0.03 | 0.03 | 53 | 1011.6 |
| 20260507170203 | 19 | 357 | 9.7 | 14.5 | 0.00 | 0.03 | 0.03 | 52 | 1011.7 |
| 20260507165704 | 19 | 344 | 8.0 | 14.5 | 0.00 | 0.03 | 0.03 | 52 | 1011.6 |
| 20260507165204 | 19 | 16 | 9.7 | 14.5 | 0.00 | 0.03 | 0.03 | 53 | 1011.6 |
| 20260507164204 | 19 | 31 | 9.7 | 14.5 | 0.00 | 0.03 | 0.03 | 53 | 1011.6 |
| 20260507163704 | 18 | 274 | 1.6 | 8.0 | 0.00 | 0.03 | 0.03 | 51 | 1011.7 |
| 20260507163203 | 19 | 133 | 3.2 | 4.8 | 0.00 | 0.03 | 0.03 | 51 | 1011.6 |
| 20260507162704 | 18 | 115 | 1.6 | 4.8 | 0.00 | 0.03 | 0.03 | 54 | 1011.7 |
| 20260507161204 | 18 | 162 | 4.8 | 11.3 | 0.00 | 0.03 | 0.03 | 57 | 1011.7 |
| 20260507160704 | 18 | 147 | 4.8 | 9.7 | 0.00 | 0.03 | 0.03 | 55 | 1011.8 |
| 20260507155704 | 18 | 17 | 3.2 | 9.7 | 0.00 | 0.03 | 0.03 | 55 | 1011.8 |
| 20260507155204 | 18 | 64 | 3.2 | 9.7 | 0.00 | 0.03 | 0.03 | 56 | 1011.9 |
| 20260507154703 | 18 | 73 | 4.8 | 11.3 | 0.00 | 0.03 | 0.03 | 56 | 1011.9 |
| 20260507154204 | 18 | 77 | 8.0 | 11.3 | 0.00 | 0.03 | 0.03 | 56 | 1012.0 |
| 20260507153704 | 18 | 159 | 6.4 | 16.1 | 0.00 | 0.03 | 0.03 | 55 | 1012.0 |
| 20260507152704 | 18 | 52 | 4.8 | 12.9 | 0.00 | 0.03 | 0.03 | 57 | 1012.0 |
| 20260507152204 | 18 | 160 | 3.2 | 12.9 | 0.00 | 0.03 | 0.03 | 57 | 1012.0 |
| 20260507151704 | 19 | 160 | 4.8 | 12.9 | 0.00 | 0.03 | 0.03 | 56 | 1012.1 |
| 20260507150703 | 18 | 167 | 1.6 | 11.3 | 0.00 | 0.03 | 0.03 | 59 | 1012.2 |
| 20260507150204 | 18 | 55 | 3.2 | 11.3 | 0.00 | 0.03 | 0.03 | 58 | 1012.3 |
| 20260507145703 | 18 | 58 | 8.0 | 14.5 | 0.00 | 0.03 | 0.03 | 56 | 1012.4 |
| 20260507145204 | 20 | 26 | 4.8 | 14.5 | 0.00 | 0.03 | 0.03 | 56 | 1012.3 |
| 20260507144204 | 18 | 71 | 6.4 | 12.9 | 0.00 | 0.03 | 0.03 | 56 | 1012.5 |
| 20260507143204 | 18 | 62 | 3.2 | 16.1 | 0.00 | 0.03 | 0.03 | 54 | 1012.6 |
| 20260507142703 | 20 | 105 | 8.0 | 16.1 | 0.00 | 0.03 | 0.03 | 52 | 1012.6 |
| 20260507142204 | 20 | 175 | 4.8 | 19.3 | 0.00 | 0.03 | 0.03 | 55 | 1012.6 |
| 20260507141704 | 18 | 198 | 9.7 | 19.3 | 0.00 | 0.03 | 0.03 | 54 | 1012.6 |
| 20260507141204 | 18 | 160 | 6.4 | 14.5 | 0.00 | 0.03 | 0.03 | 56 | 1012.7 |
| 20260507140704 | 17 | 172 | 9.7 | 16.1 | 0.00 | 0.03 | 0.03 | 59 | 1012.7 |
| 20260507140204 | 17 | 163 | 6.4 | 16.1 | 0.00 | 0.03 | 0.03 | 56 | 1012.8 |
| 20260507135704 | 17 | 165 | 6.4 | 16.1 | 0.00 | 0.03 | 0.03 | 59 | 1012.8 |
| 20260507135204 | 17 | 296 | 1.6 | 11.3 | 0.00 | 0.03 | 0.03 | 56 | 1012.9 |
| 20260507134704 | 18 | 67 | 4.8 | 14.5 | 0.00 | 0.03 | 0.03 | 57 | 1013.0 |
| 20260507134204 | 18 | 137 | 3.2 | 14.5 | 0.00 | 0.03 | 0.03 | 56 | 1013.1 |
| 20260507133704 | 18 | 141 | 6.4 | 16.1 | 0.00 | 0.03 | 0.03 | 57 | 1013.1 |
| 20260507133203 | 19 | 116 | 9.7 | 16.1 | 0.00 | 0.03 | 0.03 | 55 | 1013.1 |
| 20260507131704 | 18 | 51 | 6.4 | 12.9 | 0.00 | 0.03 | 0.03 | 58 | 1013.3 |
| 20260507131203 | 18 | 71 | 8.0 | 20.9 | 0.00 | 0.03 | 0.03 | 58 | 1013.3 |
| 20260507130704 | 19 | 78 | 8.0 | 20.9 | 0.00 | 0.03 | 0.03 | 56 | 1013.3 |
| 20260507130204 | 18 | 113 | 1.6 | 14.5 | 0.00 | 0.03 | 0.03 | 55 | 1013.3 |
| 20260507125704 | 18 | 72 | 4.8 | 11.3 | 0.00 | 0.03 | 0.03 | 56 | 1013.3 |
| 20260507125204 | 19 | 86 | 4.8 | 12.9 | 0.00 | 0.03 | 0.03 | 58 | 1013.3 |
| 20260507124704 | 17 | 114 | 6.4 | 12.9 | 0.00 | 0.03 | 0.03 | 58 | 1013.4 |
| 20260507124203 | 17 | 111 | 8.0 | 16.1 | 0.00 | 0.03 | 0.03 | 58 | 1013.4 |
| 20260507123704 | 17 | 60 | 8.0 | 16.1 | 0.00 | 0.03 | 0.03 | 59 | 1013.5 |
| 20260507123204 | 17 | 89 | 8.0 | 14.5 | 0.00 | 0.03 | 0.03 | 61 | 1013.5 |
| 20260507122204 | 17 | 76 | 3.2 | 14.5 | 0.00 | 0.03 | 0.03 | 61 | 1013.5 |
| 20260507121203 | 17 | 142 | 8.0 | 12.9 | 0.00 | 0.03 | 0.03 | 61 | 1013.6 |
| 20260507120704 | 17 | 142 | 8.0 | 16.1 | 0.00 | 0.03 | 0.03 | 61 | 1013.6 |
| 20260507115704 | 17 | 126 | 9.7 | 19.3 | 0.00 | 0.03 | 0.03 | 64 | 1013.7 |
| 20260507115203 | 17 | 167 | 12.9 | 19.3 | 0.00 | 0.03 | 0.03 | 61 | 1013.6 |
| 20260507114204 | 18 | 107 | 11.3 | 19.3 | 0.00 | 0.03 | 0.03 | 59 | 1013.7 |
| 20260507113704 | 18 | 125 | 9.7 | 19.3 | 0.00 | 0.03 | 0.03 | 60 | 1013.7 |
| 20260507113204 | 18 | 111 | 11.3 | 20.9 | 0.00 | 0.03 | 0.03 | 59 | 1013.7 |
| 20260507112704 | 18 | 123 | 11.3 | 20.9 | 0.00 | 0.03 | 0.03 | 59 | 1013.8 |
| 20260507112203 | 16 | 135 | 4.8 | 16.1 | 0.00 | 0.03 | 0.03 | 59 | 1013.9 |
| 20260507111704 | 17 | 145 | 8.0 | 19.3 | 0.00 | 0.03 | 0.03 | 60 | 1014.0 |
| 20260507110704 | 18 | 111 | 11.3 | 19.3 | 0.00 | 0.03 | 0.03 | 64 | 1014.0 |
| 20260507110204 | 18 | 138 | 12.9 | 19.3 | 0.00 | 0.03 | 0.03 | 60 | 1014.1 |
| 20260507105704 | 17 | 134 | 4.8 | 19.3 | 0.00 | 0.03 | 0.03 | 60 | 1014.1 |
| 20260507105204 | 17 | 117 | 4.8 | 22.5 | 0.00 | 0.03 | 0.03 | 58 | 1014.1 |
| 20260507104704 | 17 | 103 | 12.9 | 22.5 | 0.00 | 0.03 | 0.03 | 63 | 1014.2 |
| 20260507104204 | 16 | 62 | 4.8 | 9.7 | 0.00 | 0.03 | 0.03 | 65 | 1014.3 |
| 20260507103704 | 16 | 174 | 4.8 | 11.3 | 0.00 | 0.03 | 0.03 | 66 | 1014.3 |
| 20260507103204 | 16 | 181 | 8.0 | 11.3 | 0.00 | 0.03 | 0.03 | 64 | 1014.3 |
| 20260507102704 | 16 | 164 | 8.0 | 19.3 | 0.00 | 0.03 | 0.03 | 67 | 1014.4 |
| 20260507102204 | 16 | 113 | 4.8 | 19.3 | 0.00 | 0.03 | 0.03 | 66 | 1014.4 |
| 20260507101704 | 16 | 123 | 8.0 | 14.5 | 0.00 | 0.03 | 0.03 | 67 | 1014.4 |
| 20260507101204 | 16 | 111 | 8.0 | 14.5 | 0.00 | 0.03 | 0.03 | 67 | 1014.4 |
| 20260507100704 | 16 | 84 | 4.8 | 14.5 | 0.00 | 0.03 | 0.03 | 64 | 1014.4 |
| 20260507100204 | 17 | 100 | 9.7 | 14.5 | 0.00 | 0.03 | 0.03 | 66 | 1014.4 |
| 20260507095704 | 17 | 96 | 6.4 | 14.5 | 0.00 | 0.03 | 0.03 | 70 | 1014.4 |
| 20260507095204 | 17 | 123 | 8.0 | 14.5 | 0.00 | 0.03 | 0.03 | 65 | 1014.5 |
| 20260507094704 | 16 | 59 | 6.4 | 14.5 | 0.00 | 0.03 | 0.03 | 64 | 1014.4 |
| 20260507094204 | 16 | 91 | 4.8 | 12.9 | 0.00 | 0.03 | 0.03 | 70 | 1014.5 |
| 20260507093704 | 15 | 89 | 4.8 | 14.5 | 0.00 | 0.03 | 0.03 | 66 | 1014.4 |
| 20260507093204 | 16 | 97 | 4.8 | 19.3 | 0.00 | 0.03 | 0.03 | 66 | 1014.5 |
| 20260507092704 | 16 | 128 | 9.7 | 19.3 | 0.00 | 0.03 | 0.03 | 68 | 1014.5 |
| 20260507091704 | 16 | 157 | 8.0 | 11.3 | 0.00 | 0.03 | 0.03 | 70 | 1014.4 |
| 20260507091204 | 15 | 87 | 4.8 | 11.3 | 0.00 | 0.03 | 0.03 | 69 | 1014.4 |
| 20260507090204 | 15 | 113 | 4.8 | 9.7 | 0.00 | 0.03 | 0.03 | 71 | 1014.4 |
| 20260507085204 | 15 | 142 | 8.0 | 14.5 | 0.00 | 0.03 | 0.03 | 75 | 1014.4 |
| 20260507084704 | 15 | 160 | 8.0 | 14.5 | 0.00 | 0.03 | 0.03 | 76 | 1014.4 |
| 20260507084204 | 16 | 166 | 8.0 | 14.5 | 0.00 | 0.03 | 0.03 | 76 | 1014.4 |
| 20260507083203 | 15 | 166 | 8.0 | 12.9 | 0.00 | 0.03 | 0.03 | 76 | 1014.4 |
| 20260507082703 | 15 | 143 | 6.4 | 12.9 | 0.00 | 0.03 | 0.03 | 75 | 1014.4 |
| 20260507082205 | 15 | 147 | 9.7 | 12.9 | 0.00 | 0.03 | 0.03 | 78 | 1014.5 |
| 20260507081704 | 15 | 173 | 8.0 | 11.3 | 0.00 | 0.03 | 0.03 | 79 | 1014.5 |
| 20260507081204 | 14 | 167 | 6.4 | 11.3 | 0.00 | 0.03 | 0.03 | 79 | 1014.5 |
| 20260507080704 | 14 | 162 | 8.0 | 11.3 | 0.00 | 0.05 | 0.03 | 80 | 1014.5 |
| 20260507080204 | 14 | 137 | 6.4 | 11.3 | 0.00 | 0.05 | 0.03 | 80 | 1014.5 |
| 20260507075704 | 14 | 151 | 8.0 | 11.3 | 0.00 | 0.05 | 0.03 | 79 | 1014.5 |
| 20260507075204 | 14 | 145 | 6.4 | 11.3 | 0.00 | 0.05 | 0.03 | 80 | 1014.5 |
| 20260507074704 | 13 | 117 | 8.0 | 11.3 | 0.00 | 0.05 | 0.03 | 80 | 1014.4 |
| 20260507074204 | 13 | 135 | 4.8 | 11.3 | 0.00 | 0.05 | 0.03 | 83 | 1014.4 |
| 20260507072704 | 13 | 107 | 6.4 | 9.7 | 0.03 | 0.05 | 0.03 | 86 | 1014.2 |
| 20260507072204 | 13 | 91 | 3.2 | 9.7 | 0.03 | 0.05 | 0.03 | 87 | 1014.2 |
| 20260507071704 | 12 | 49 | 4.8 | 9.7 | 0.03 | 0.05 | 0.03 | 88 | 1014.2 |
| 20260507071206 | 12 | 94 | 4.8 | 9.7 | 0.03 | 0.05 | 0.03 | 89 | 1014.2 |
| 20260507070704 | 12 | 98 | 4.8 | 9.7 | 0.03 | 0.05 | 0.03 | 90 | 1014.3 |
| 20260507070204 | 12 | 88 | 4.8 | 9.7 | 0.03 | 0.05 | 0.03 | 90 | 1014.3 |
| 20260507065203 | 12 | 92 | 4.8 | 9.7 | 0.03 | 0.05 | 0.03 | 92 | 1014.2 |
| 20260507064704 | 11 | 153 | 3.2 | 8.0 | 0.03 | 0.05 | 0.03 | 92 | 1014.2 |
| 20260507063704 | 11 | 50 | 3.2 | 8.0 | 0.03 | 0.05 | 0.03 | 93 | 1014.0 |
| 20260507062704 | 10 | 44 | 4.8 | 4.8 | 0.00 | 0.03 | 0.00 | 93 | 1014.1 |
| 20260507062204 | 10 | 47 | 3.2 | 4.8 | 0.00 | 0.03 | 0.00 | 93 | 1014.1 |
| 20260507061703 | 10 | 55 | 3.2 | 3.2 | 0.00 | 0.03 | 0.00 | 93 | 1014.1 |
| 20260507061204 | 9 | 83 | 1.6 | 3.2 | 0.00 | 0.03 | 0.00 | 93 | 1014.0 |
| 20260507060704 | 9 | 159 | 1.6 | 3.2 | 0.00 | 0.03 | 0.00 | 93 | 1014.1 |
| 20260507055704 | 9 | 202 | 1.6 | 3.2 | 0.00 | 0.03 | 0.00 | 93 | 1014.0 |
| 20260507055204 | 8 | 196 | 1.6 | 1.6 | 0.00 | 0.03 | 0.00 | 93 | 1014.0 |
| 20260507054704 | 8 | 209 | 1.6 | 3.2 | 0.00 | 0.03 | 0.00 | 93 | 1014.0 |
| 20260507054203 | 8 | 166 | 1.6 | 4.8 | 0.00 | 0.03 | 0.00 | 93 | 1014.0 |
| 20260507053704 | 8 | 52 | 3.2 | 8.0 | 0.00 | 0.03 | 0.00 | 93 | 1013.9 |
| 20260507053204 | 9 | 46 | 4.8 | 8.0 | 0.00 | 0.03 | 0.00 | 93 | 1013.9 |
| 20260507052704 | 9 | 45 | 4.8 | 9.7 | 0.00 | 0.03 | 0.00 | 93 | 1013.9 |
| 20260507052204 | 9 | 43 | 4.8 | 9.7 | 0.00 | 0.03 | 0.00 | 93 | 1013.8 |
| 20260507051204 | 9 | 43 | 6.4 | 8.0 | 0.00 | 0.03 | 0.00 | 93 | 1013.8 |
| 20260507050703 | 9 | 35 | 6.4 | 8.0 | 0.00 | 0.03 | 0.00 | 93 | 1013.7 |
| 20260507050203 | 9 | 33 | 4.8 | 4.8 | 0.00 | 0.03 | 0.00 | 93 | 1013.6 |
| 20260507045704 | 9 | 37 | 4.8 | 4.8 | 0.00 | 0.03 | 0.00 | 93 | 1013.6 |
| 20260507045204 | 9 | 30 | 4.8 | 4.8 | 0.00 | 0.03 | 0.00 | 93 | 1013.7 |
| 20260507044704 | 9 | 19 | 3.2 | 3.2 | 0.00 | 0.03 | 0.00 | 93 | 1013.7 |
| 20260507044204 | 9 | 5 | 1.6 | 4.8 | 0.00 | 0.03 | 0.00 | 92 | 1013.7 |
| 20260507043204 | 9 | 27 | 3.2 | 4.8 | 0.00 | 0.03 | 0.00 | 92 | 1013.7 |
| 20260507042704 | 10 | 25 | 3.2 | 4.8 | 0.00 | 0.03 | 0.00 | 92 | 1013.6 |
| 20260507042204 | 10 | 17 | 3.2 | 4.8 | 0.00 | 0.03 | 0.00 | 92 | 1013.6 |
| 20260507041704 | 10 | 345 | 3.2 | 4.8 | 0.00 | 0.03 | 0.00 | 92 | 1013.6 |
| 20260507040204 | 10 | 24 | 3.2 | 8.0 | 0.00 | 0.03 | 0.00 | 91 | 1013.6 |
| 20260507035704 | 10 | 48 | 4.8 | 9.7 | 0.00 | 0.03 | 0.00 | 91 | 1013.6 |
| 20260507035204 | 10 | 55 | 8.0 | 9.7 | 0.00 | 0.03 | 0.00 | 91 | 1013.6 |
| 20260507034704 | 10 | 54 | 8.0 | 11.3 | 0.00 | 0.03 | 0.00 | 91 | 1013.6 |
| 20260507034204 | 10 | 56 | 8.0 | 11.3 | 0.00 | 0.03 | 0.00 | 91 | 1013.6 |
| 20260507033704 | 10 | 54 | 9.7 | 11.3 | 0.00 | 0.03 | 0.00 | 91 | 1013.6 |
| 20260507033204 | 10 | 53 | 8.0 | 11.3 | 0.00 | 0.03 | 0.00 | 91 | 1013.6 |
| 20260507032703 | 10 | 52 | 8.0 | 11.3 | 0.00 | 0.03 | 0.00 | 91 | 1013.6 |
| 20260507032203 | 10 | 49 | 8.0 | 9.7 | 0.00 | 0.03 | 0.00 | 91 | 1013.6 |
| 20260507031204 | 10 | 52 | 8.0 | 9.7 | 0.00 | 0.03 | 0.00 | 91 | 1013.6 |
| 20260507030704 | 11 | 52 | 8.0 | 9.7 | 0.00 | 0.03 | 0.00 | 91 | 1013.6 |
| 20260507030203 | 11 | 53 | 4.8 | 9.7 | 0.00 | 0.03 | 0.00 | 91 | 1013.5 |
| 20260507025704 | 11 | 50 | 6.4 | 9.7 | 0.00 | 0.03 | 0.00 | 91 | 1013.6 |
| 20260507025204 | 11 | 51 | 6.4 | 9.7 | 0.00 | 0.03 | 0.00 | 92 | 1013.5 |
| 20260507024704 | 11 | 46 | 6.4 | 9.7 | 0.00 | 0.03 | 0.00 | 92 | 1013.5 |
| 20260507024204 | 11 | 47 | 4.8 | 8.0 | 0.00 | 0.03 | 0.00 | 92 | 1013.5 |
| 20260507023704 | 11 | 53 | 4.8 | 8.0 | 0.00 | 0.03 | 0.00 | 92 | 1013.6 |
| 20260507023204 | 10 | 51 | 4.8 | 8.0 | 0.00 | 0.03 | 0.00 | 92 | 1013.6 |
| 20260507022704 | 10 | 52 | 8.0 | 9.7 | 0.00 | 0.03 | 0.00 | 92 | 1013.6 |
| 20260507021704 | 10 | 54 | 8.0 | 9.7 | 0.00 | 0.03 | 0.00 | 93 | 1013.5 |
| 20260507021204 | 10 | 52 | 8.0 | 9.7 | 0.00 | 0.03 | 0.00 | 93 | 1013.5 |
| 20260507020703 | 10 | 48 | 4.8 | 8.0 | 0.00 | 0.03 | 0.00 | 93 | 1013.5 |
| 20260507020204 | 10 | 54 | 4.8 | 8.0 | 0.00 | 0.03 | 0.00 | 93 | 1013.5 |
| 20260507015203 | 10 | 40 | 3.2 | 4.8 | 0.00 | 0.03 | 0.00 | 93 | 1013.5 |
| 20260507014204 | 10 | 74 | 1.6 | 3.2 | 0.00 | 0.03 | 0.00 | 93 | 1013.6 |
| 20260507013704 | 10 | 55 | 3.2 | 4.8 | 0.00 | 0.03 | 0.00 | 93 | 1013.6 |
| 20260507013204 | 10 | 53 | 3.2 | 4.8 | 0.00 | 0.03 | 0.00 | 93 | 1013.5 |
| 20260507012704 | 10 | 54 | 3.2 | 4.8 | 0.00 | 0.03 | 0.00 | 93 | 1013.5 |
| 20260507012204 | 10 | 37 | 3.2 | 4.8 | 0.00 | 0.03 | 0.00 | 93 | 1013.5 |
| 20260507011704 | 10 | 47 | 3.2 | 4.8 | 0.00 | 0.03 | 0.00 | 93 | 1013.6 |
| 20260507011203 | 10 | 21 | 3.2 | 8.0 | 0.00 | 0.03 | 0.00 | 93 | 1013.6 |
| 20260507010704 | 10 | 33 | 4.8 | 8.0 | 0.00 | 0.03 | 0.00 | 93 | 1013.6 |
| 20260507010203 | 10 | 28 | 4.8 | 8.0 | 0.00 | 0.03 | 0.00 | 93 | 1013.6 |
| 20260507005703 | 9 | 23 | 4.8 | 9.7 | 0.00 | 0.03 | 0.00 | 93 | 1013.7 |
| 20260507004704 | 9 | 353 | 8.0 | 8.0 | 0.00 | 0.03 | 0.00 | 93 | 1013.7 |
| 20260507004204 | 9 | 2 | 8.0 | 8.0 | 0.00 | 0.03 | 0.00 | 93 | 1013.8 |
| 20260507003704 | 9 | 20 | 4.8 | 8.0 | 0.00 | 0.03 | 0.00 | 93 | 1013.8 |
| 20260507003204 | 9 | 293 | 3.2 | 3.2 | 0.00 | 0.03 | 0.00 | 93 | 1013.8 |
| 20260507002703 | 9 | 284 | 3.2 | 3.2 | 0.00 | 0.03 | 0.00 | 93 | 1013.9 |
| 20260507002204 | 9 | 289 | 3.2 | 3.2 | 0.00 | 0.03 | 0.00 | 93 | 1013.9 |
| 20260507001704 | 9 | 245 | 1.6 | 1.6 | 0.00 | 0.03 | 0.00 | 93 | 1013.9 |
| 20260507001204 | 9 | 254 | 1.6 | 1.6 | 0.00 | 0.03 | 0.00 | 93 | 1014.0 |
| 20260507000704 | 9 | 256 | 1.6 | 1.6 | 0.00 | 0.03 | 0.00 | 93 | 1014.0 |
| 20260507000205 | 8 | 255 | 1.6 | 3.2 | 0.00 | 0.03 | 0.00 | 93 | 1014.0 |
| 20260506235204 | 8 | 255 | 3.2 | 3.2 | 0.00 | 0.03 | 0.03 | 93 | 1014.0 |
| 20260506234704 | 9 | 248 | 3.2 | 3.2 | 0.00 | 0.03 | 0.03 | 93 | 1014.0 |
| 20260506233703 | 8 | 153 | 0.0 | 1.6 | 0.00 | 0.03 | 0.03 | 93 | 1014.0 |
| 20260506233204 | 8 | 332 | 0.0 | 1.6 | 0.00 | 0.03 | 0.03 | 93 | 1014.0 |
| 20260506232704 | 8 | 329 | 1.6 | 3.2 | 0.00 | 0.03 | 0.03 | 93 | 1013.9 |
| 20260506231704 | 9 | 306 | 1.6 | 3.2 | 0.00 | 0.03 | 0.03 | 93 | 1013.9 |
| 20260506231204 | 9 | 318 | 3.2 | 3.2 | 0.00 | 0.03 | 0.03 | 93 | 1013.9 |
| 20260506230704 | 9 | 315 | 3.2 | 4.8 | 0.00 | 0.03 | 0.03 | 93 | 1014.0 |
| 20260506230205 | 9 | 306 | 3.2 | 4.8 | 0.00 | 0.03 | 0.03 | 93 | 1014.0 |
| 20260506225704 | 10 | 298 | 4.8 | 4.8 | 0.00 | 0.03 | 0.03 | 93 | 1014.0 |
| 20260506224704 | 10 | 299 | 3.2 | 3.2 | 0.00 | 0.03 | 0.03 | 92 | 1013.9 |
| 20260506224204 | 10 | 303 | 1.6 | 3.2 | 0.00 | 0.03 | 0.03 | 92 | 1013.9 |
| 20260506223704 | 10 | 324 | 1.6 | 3.2 | 0.00 | 0.03 | 0.03 | 92 | 1013.9 |
| 20260506222703 | 10 | 315 | 1.6 | 3.2 | 0.00 | 0.03 | 0.03 | 92 | 1013.9 |
| 20260506222203 | 11 | 327 | 1.6 | 3.2 | 0.00 | 0.03 | 0.03 | 92 | 1013.9 |
| 20260506221705 | 11 | 336 | 3.2 | 4.8 | 0.00 | 0.03 | 0.03 | 92 | 1013.9 |
| 20260506221204 | 11 | 345 | 3.2 | 4.8 | 0.00 | 0.03 | 0.03 | 92 | 1013.8 |
| 20260506220704 | 11 | 336 | 4.8 | 8.0 | 0.00 | 0.03 | 0.03 | 92 | 1013.8 |
| 20260506220203 | 11 | 335 | 4.8 | 8.0 | 0.00 | 0.03 | 0.03 | 92 | 1013.8 |
| 20260506215704 | 11 | 335 | 4.8 | 8.0 | 0.00 | 0.03 | 0.03 | 92 | 1013.8 |
| 20260506215204 | 11 | 338 | 3.2 | 8.0 | 0.00 | 0.03 | 0.03 | 92 | 1013.8 |
| 20260506214704 | 11 | 333 | 4.8 | 8.0 | 0.00 | 0.03 | 0.03 | 92 | 1013.9 |
| 20260506214204 | 11 | 329 | 4.8 | 8.0 | 0.00 | 0.03 | 0.03 | 92 | 1013.9 |
| 20260506213704 | 11 | 308 | 4.8 | 4.8 | 0.00 | 0.03 | 0.03 | 92 | 1013.9 |
| 20260506213204 | 11 | 299 | 3.2 | 4.8 | 0.00 | 0.03 | 0.03 | 91 | 1013.9 |
| 20260506212704 | 11 | 294 | 3.2 | 4.8 | 0.00 | 0.03 | 0.03 | 91 | 1013.9 |
| 20260506212204 | 11 | 286 | 3.2 | 4.8 | 0.00 | 0.03 | 0.03 | 91 | 1013.9 |
| 20260506211703 | 11 | 280 | 3.2 | 4.8 | 0.00 | 0.03 | 0.03 | 91 | 1013.8 |
| 20260506211204 | 11 | 276 | 4.8 | 4.8 | 0.00 | 0.03 | 0.03 | 91 | 1013.9 |
| 20260506210703 | 11 | 252 | 3.2 | 3.2 | 0.00 | 0.03 | 0.03 | 90 | 1013.8 |
| 20260506210204 | 11 | 264 | 1.6 | 3.2 | 0.00 | 0.03 | 0.03 | 90 | 1013.8 |
| 20260506205704 | 11 | 351 | 1.6 | 3.2 | 0.00 | 0.03 | 0.03 | 90 | 1013.7 |
| 20260506205204 | 12 | 11 | 1.6 | 3.2 | 0.00 | 0.03 | 0.03 | 90 | 1013.7 |
| 20260506203704 | 12 | 329 | 1.6 | 4.8 | 0.00 | 0.03 | 0.03 | 90 | 1013.6 |
| 20260506202704 | 12 | 337 | 3.2 | 4.8 | 0.00 | 0.03 | 0.03 | 89 | 1013.5 |
| 20260506202204 | 12 | 332 | 3.2 | 4.8 | 0.00 | 0.03 | 0.03 | 89 | 1013.4 |
| 20260506201704 | 12 | 330 | 3.2 | 4.8 | 0.00 | 0.03 | 0.03 | 89 | 1013.3 |
| 20260506201205 | 12 | 325 | 3.2 | 4.8 | 0.00 | 0.03 | 0.03 | 89 | 1013.3 |
| 20260506200703 | 12 | 320 | 3.2 | 4.8 | 0.00 | 0.03 | 0.03 | 88 | 1013.2 |
| 20260506200205 | 12 | 322 | 4.8 | 4.8 | 0.00 | 0.03 | 0.03 | 89 | 1013.1 |
| 20260506195704 | 12 | 316 | 4.8 | 4.8 | 0.00 | 0.03 | 0.03 | 89 | 1013.1 |
| 20260506195204 | 12 | 311 | 3.2 | 4.8 | 0.00 | 0.03 | 0.03 | 89 | 1013.1 |
| 20260506194704 | 12 | 308 | 3.2 | 4.8 | 0.00 | 0.03 | 0.03 | 89 | 1013.1 |
| 20260506193704 | 12 | 311 | 3.2 | 4.8 | 0.00 | 0.03 | 0.03 | 89 | 1013.0 |
| 20260506193204 | 12 | 312 | 3.2 | 4.8 | 0.00 | 0.03 | 0.03 | 89 | 1012.9 |
| 20260506192704 | 12 | 309 | 3.2 | 8.0 | 0.00 | 0.03 | 0.03 | 89 | 1012.9 |
| 20260506192204 | 12 | 303 | 3.2 | 8.0 | 0.00 | 0.03 | 0.03 | 89 | 1012.9 |
| 20260506191703 | 12 | 303 | 6.4 | 8.0 | 0.00 | 0.03 | 0.03 | 89 | 1012.8 |
| 20260506191203 | 12 | 296 | 6.4 | 8.0 | 0.00 | 0.03 | 0.03 | 88 | 1012.8 |
| 20260506190704 | 12 | 283 | 4.8 | 8.0 | 0.00 | 0.03 | 0.03 | 88 | 1012.7 |